Вернуться в каталог

KOREASAT 6

АктивенСвязьGEO
NORAD 37265·PAYLOAD·🇰🇷 South Korea

Запущен Dec 29, 2010 с Guiana Space Centre

Loading…

TLE

СвежийSource: Space-Track

Эпоха: Sep 14, 2026, 21:24 UTC

1 37265U 10070B   26257.89192728 -.00000119  00000-0  00000-0 0  9991
2 37265   0.0156 231.4226 0002029 320.9815 282.4354  1.00269223 57676

Отслеживайте KOREASAT 6 в реальном времени с AllMySat

Download on the App Store